Location: Finney State Fishing Lake and Wildlife Area
(38.1834°N, 100.3310°W)
Time: 12:35:26
(UTC+00:00)

BREEZE-M DEB (TANK) - Pass Details

Date: 17 October 2021
Orbit: 310 x 13875 km, 46.1° (Epoch: 29 November)

Event Time Altitude Azimuth Distance (km) Brightness Sun altitude
Exits shadow 12:09:50 - 308° (NW) 1,648 4.2 -9.1°
Reaches altitude 10° 12:10:11 10° 312° (NW) 1,501 4.1 -9.0°
Maximum altitude 12:12:07 16° 357° (N) 972 3.5 -8.7°
Drops below altitude 10° 12:13:42 10° 43° (NE) 1,201 4.6 -8.3°
Sets 12:15:55 0° 70° (ENE) 2,133 6.7 -7.9°
